Time,TemperatureF,DewpointF,PressureIn,WindDirection,WindDirectionDegrees,WindSpeedMPH,WindSpeedGustMPH,Humidity,HourlyPrecipIn,Conditions,Clouds,dailyrainin,SoftwareType,DateUTC
2013-06-10 00:03:00,63.0,62.0,30.10,South,176,0.0,2.0,97,0.11,,,1.95,,2013-06-10 04:03:00,
2013-06-10 00:13:00,63.0,62.0,30.10,South,176,0.0,2.0,97,0.11,,,1.95,,2013-06-10 04:13:00,
2013-06-10 00:23:00,63.0,62.0,30.09,South,176,0.0,2.0,97,0.07,,,1.98,,2013-06-10 04:23:00,
2013-06-10 00:33:00,63.0,62.0,30.09,South,176,0.0,3.0,97,0.08,,,2.02,,2013-06-10 04:33:00,
2013-06-10 00:42:00,63.0,62.0,30.09,South,176,0.0,3.0,97,0.08,,,2.02,,2013-06-10 04:42:00,
2013-06-10 00:53:00,63.0,62.0,30.09,South,176,1.0,4.0,97,0.09,,,2.02,,2013-06-10 04:53:00,
2013-06-10 01:02:00,63.0,62.0,30.08,South,176,0.0,3.0,97,0.11,,,2.06,,2013-06-10 05:02:00,
2013-06-10 01:12:00,63.0,62.0,30.08,South,176,0.0,3.0,97,0.11,,,2.06,,2013-06-10 05:12:00,
2013-06-10 01:22:00,63.0,62.0,30.08,South,176,1.0,5.0,97,0.12,,,2.10,,2013-06-10 05:22:00,
2013-06-10 01:32:00,63.0,62.0,30.07,South,176,0.0,3.0,97,0.10,,,2.12,,2013-06-10 05:32:00,
2013-06-10 01:42:00,63.0,62.0,30.07,South,176,0.0,3.0,97,0.10,,,2.12,,2013-06-10 05:42:00,
2013-06-10 01:52:00,63.0,62.0,30.07,South,176,0.0,4.0,97,0.09,,,2.12,,2013-06-10 05:52:00,
2013-06-10 02:02:00,63.0,62.0,30.07,South,176,0.0,2.0,97,0.13,,,2.19,,2013-06-10 06:02:00,
2013-06-10 02:12:00,63.0,62.0,30.07,South,176,0.0,2.0,97,0.13,,,2.19,,2013-06-10 06:12:00,
2013-06-10 02:22:00,63.0,62.0,30.06,South,176,1.0,3.0,97,0.27,,,2.38,,2013-06-10 06:22:00,
2013-06-10 02:32:00,63.0,62.0,30.05,South,176,0.0,3.0,97,0.38,,,2.50,,2013-06-10 06:32:00,
2013-06-10 02:42:00,63.0,62.0,30.05,South,176,0.0,3.0,97,0.38,,,2.50,,2013-06-10 06:42:00,
2013-06-10 02:53:00,63.0,62.0,30.04,South,174,1.0,11.0,97,0.48,,,2.60,,2013-06-10 06:53:00,
2013-06-10 03:02:00,63.0,62.0,30.04,South,173,2.0,9.0,97,0.47,,,2.66,,2013-06-10 07:02:00,
2013-06-10 03:12:00,63.0,62.0,30.04,South,173,2.0,9.0,97,0.47,,,2.66,,2013-06-10 07:12:00,
2013-06-10 03:22:00,63.0,62.0,30.04,South,173,2.0,5.0,97,0.28,,,2.67,,2013-06-10 07:22:00,
2013-06-10 03:32:00,63.0,62.0,30.04,South,173,0.0,3.0,97,0.17,,,2.67,,2013-06-10 07:32:00,
2013-06-10 03:42:00,63.0,62.0,30.04,South,173,0.0,3.0,97,0.17,,,2.67,,2013-06-10 07:42:00,
2013-06-10 03:52:00,63.0,62.0,30.03,South,173,0.0,4.0,97,0.07,,,2.67,,2013-06-10 07:52:00,
2013-06-10 04:02:00,63.0,62.0,30.03,South,174,0.0,3.0,97,0.02,,,2.68,,2013-06-10 08:02:00,
2013-06-10 04:12:00,63.0,62.0,30.03,South,174,0.0,3.0,97,0.02,,,2.68,,2013-06-10 08:12:00,
2013-06-10 04:22:00,63.0,62.0,30.03,South,174,0.0,1.0,97,0.03,,,2.70,,2013-06-10 08:22:00,
2013-06-10 04:32:00,63.0,62.0,30.03,South,175,0.0,3.0,97,0.12,,,2.79,,2013-06-10 08:32:00,
2013-06-10 04:42:00,63.0,62.0,30.03,South,175,0.0,3.0,97,0.12,,,2.79,,2013-06-10 08:42:00,
2013-06-10 04:52:00,63.0,62.0,30.02,South,174,0.0,2.0,97,0.31,,,2.98,,2013-06-10 08:52:00,
2013-06-10 05:02:00,63.0,62.0,30.02,South,175,0.0,3.0,97,0.43,,,3.11,,2013-06-10 09:02:00,
2013-06-10 05:12:00,63.0,62.0,30.02,South,175,0.0,3.0,97,0.43,,,3.11,,2013-06-10 09:12:00,
2013-06-10 05:22:00,63.0,62.0,30.02,South,172,1.0,12.0,97,0.42,,,3.12,,2013-06-10 09:22:00,
2013-06-10 05:32:00,62.0,61.0,30.02,South,169,3.0,13.0,97,0.30,,,3.12,,2013-06-10 09:32:00,
2013-06-10 05:42:00,62.0,61.0,30.02,South,169,3.0,13.0,97,0.30,,,3.12,,2013-06-10 09:42:00,
2013-06-10 05:53:00,62.0,61.0,30.02,South,173,0.0,13.0,96,0.14,,,3.12,,2013-06-10 09:53:00,
2013-06-10 06:03:00,63.0,61.0,30.02,South,173,3.0,9.0,94,0.00,,,3.12,,2013-06-10 10:03:00,
2013-06-10 06:13:00,63.0,61.0,30.02,South,173,3.0,9.0,94,0.00,,,3.12,,2013-06-10 10:13:00,
2013-06-10 06:23:00,62.0,61.0,30.02,South,175,1.0,8.0,95,0.03,,,3.15,,2013-06-10 10:23:00,
2013-06-10 06:33:00,62.0,61.0,30.02,South,170,2.0,10.0,95,0.03,,,3.15,,2013-06-10 10:33:00,
2013-06-10 06:42:00,62.0,61.0,30.02,South,170,2.0,10.0,95,0.03,,,3.15,,2013-06-10 10:42:00,
2013-06-10 06:52:00,62.0,61.0,30.02,South,172,2.0,8.0,95,0.03,,,3.15,,2013-06-10 10:52:00,
2013-06-10 07:03:00,62.0,61.0,30.03,South,174,2.0,6.0,95,0.03,,,3.15,,2013-06-10 11:03:00,
2013-06-10 07:12:00,62.0,61.0,30.03,South,174,2.0,6.0,95,0.03,,,3.15,,2013-06-10 11:12:00,
2013-06-10 07:22:00,62.0,61.0,30.03,South,176,2.0,13.0,95,0.01,,,3.16,,2013-06-10 11:22:00,
2013-06-10 07:32:00,62.0,61.0,30.03,South,174,3.0,10.0,95,0.01,,,3.16,,2013-06-10 11:32:00,
2013-06-10 07:42:00,62.0,61.0,30.03,South,174,3.0,10.0,95,0.01,,,3.16,,2013-06-10 11:42:00,
2013-06-10 07:52:00,62.0,61.0,30.03,South,172,2.0,10.0,95,0.01,,,3.16,,2013-06-10 11:52:00,
2013-06-10 08:02:00,63.0,62.0,30.03,South,174,2.0,8.0,95,0.01,,,3.16,,2013-06-10 12:02:00,
2013-06-10 08:12:00,63.0,62.0,30.03,South,174,2.0,8.0,95,0.01,,,3.16,,2013-06-10 12:12:00,
2013-06-10 08:22:00,63.0,62.0,30.03,South,173,1.0,9.0,95,0.00,,,3.16,,2013-06-10 12:22:00,
2013-06-10 08:32:00,64.0,62.0,30.03,South,176,2.0,13.0,93,0.00,,,3.16,,2013-06-10 12:32:00,
2013-06-10 08:42:00,64.0,62.0,30.03,South,176,2.0,13.0,93,0.00,,,3.16,,2013-06-10 12:42:00,
2013-06-10 08:52:00,64.0,62.0,30.03,South,177,1.0,8.0,93,0.00,,,3.16,,2013-06-10 12:52:00,
2013-06-10 09:02:00,64.0,62.0,30.03,South,173,1.0,6.0,93,0.00,,,3.16,,2013-06-10 13:02:00,
2013-06-10 09:12:00,64.0,62.0,30.03,South,173,1.0,6.0,93,0.00,,,3.16,,2013-06-10 13:12:00,
2013-06-10 09:22:00,64.0,62.0,30.03,South,179,3.0,13.0,93,0.00,,,3.16,,2013-06-10 13:22:00,
2013-06-10 09:32:00,65.0,63.0,30.03,South,172,3.0,7.0,92,0.00,,,3.16,,2013-06-10 13:32:00,
2013-06-10 09:42:00,65.0,63.0,30.03,South,172,3.0,7.0,92,0.00,,,3.16,,2013-06-10 13:42:00,
2013-06-10 09:52:00,66.0,63.0,30.03,South,169,3.0,9.0,91,0.00,,,3.16,,2013-06-10 13:52:00,
2013-06-10 10:02:00,67.0,64.0,30.03,South,174,3.0,12.0,90,0.00,,,3.16,,2013-06-10 14:02:00,
2013-06-10 10:12:00,67.0,64.0,30.03,South,174,3.0,12.0,90,0.00,,,3.16,,2013-06-10 14:12:00,
2013-06-10 10:22:00,68.0,64.0,30.03,South,172,1.0,9.0,87,0.00,,,3.16,,2013-06-10 14:22:00,
2013-06-10 10:32:00,68.0,63.0,30.02,South,174,1.0,14.0,85,0.00,,,3.16,,2013-06-10 14:32:00,
2013-06-10 10:42:00,68.0,63.0,30.02,South,174,1.0,14.0,85,0.00,,,3.16,,2013-06-10 14:42:00,
2013-06-10 10:52:00,67.0,62.0,30.02,South,171,3.0,9.0,85,0.00,,,3.16,,2013-06-10 14:52:00,
2013-06-10 11:02:00,67.0,63.0,30.02,South,172,3.0,12.0,86,0.00,,,3.16,,2013-06-10 15:02:00,
2013-06-10 11:12:00,67.0,63.0,30.02,South,172,3.0,12.0,86,0.00,,,3.16,,2013-06-10 15:12:00,
2013-06-10 11:22:00,67.0,63.0,30.02,SSE,166,3.0,10.0,86,0.00,,,3.16,,2013-06-10 15:22:00,
2013-06-10 11:33:00,69.0,65.0,30.02,South,173,2.0,7.0,86,0.00,,,3.16,,2013-06-10 15:33:00,
2013-06-10 11:43:00,69.0,65.0,30.02,South,173,2.0,7.0,86,0.00,,,3.16,,2013-06-10 15:43:00,
2013-06-10 11:53:00,69.0,64.0,30.03,South,171,1.0,7.0,85,0.00,,,3.16,,2013-06-10 15:53:00,
2013-06-10 12:03:00,69.0,65.0,30.03,South,172,1.0,6.0,86,0.00,,,3.16,,2013-06-10 16:03:00,
2013-06-10 12:13:00,69.0,65.0,30.03,South,172,1.0,6.0,86,0.00,,,3.16,,2013-06-10 16:13:00,
2013-06-10 12:23:00,69.0,64.0,30.02,South,169,2.0,11.0,83,0.00,,,3.16,,2013-06-10 16:23:00,
2013-06-10 12:33:00,72.0,65.0,30.02,South,173,3.0,7.0,79,0.00,,,3.16,,2013-06-10 16:33:00,
2013-06-10 12:43:00,72.0,65.0,30.02,South,173,3.0,7.0,79,0.00,,,3.16,,2013-06-10 16:43:00,
2013-06-10 12:53:00,70.0,64.0,30.01,South,174,1.0,11.0,81,0.00,,,3.16,,2013-06-10 16:53:00,
2013-06-10 13:03:00,69.0,64.0,30.01,South,170,1.0,7.0,83,0.00,,,3.16,,2013-06-10 17:03:00,
2013-06-10 13:14:00,69.0,64.0,30.01,South,170,1.0,7.0,83,0.00,,,3.16,,2013-06-10 17:14:00,
2013-06-10 13:27:00,62.0,56.0,30.03,SSE,167,5.0,17.0,82,0.10,,,3.19,,2013-06-10 17:27:00,
2013-06-10 13:38:00,60.0,57.0,29.99,South,170,2.0,9.0,89,0.16,,,3.25,,2013-06-10 17:38:00,
2013-06-10 13:48:00,59.0,56.0,29.99,South,174,2.0,10.0,89,0.19,,,3.28,,2013-06-10 17:48:00,
2013-06-10 13:58:00,59.0,56.0,29.99,South,174,2.0,10.0,89,0.19,,,3.28,,2013-06-10 17:58:00,
2013-06-10 14:07:00,60.0,57.0,29.98,South,174,1.0,6.0,91,0.19,,,3.28,,2013-06-10 18:07:00,
2013-06-10 14:14:00,60.0,57.0,29.98,South,174,1.0,6.0,91,0.19,,,3.28,,2013-06-10 18:14:00,
2013-06-10 14:25:00,61.0,59.0,29.97,South,172,2.0,8.0,92,0.08,,,3.05,,2013-06-10 18:25:00,
2013-06-10 14:35:00,64.0,60.0,29.97,South,174,2.0,9.0,87,0.01,,,3.05,,2013-06-10 18:35:00,
2013-06-10 14:48:00,64.0,60.0,29.97,South,174,2.0,9.0,87,0.01,,,3.05,,2013-06-10 18:48:00,
2013-06-10 14:55:00,66.0,62.0,29.98,South,169,3.0,8.0,87,0.00,,,3.05,,2013-06-10 18:55:00,
2013-06-10 15:03:00,68.0,62.0,29.98,South,173,1.0,13.0,81,0.00,,,3.05,,2013-06-10 19:03:00,
2013-06-10 15:13:00,68.0,62.0,29.98,South,173,1.0,13.0,81,0.00,,,3.05,,2013-06-10 19:13:00,
2013-06-10 15:22:00,71.0,64.0,29.98,South,173,1.0,4.0,79,0.00,,,2.67,,2013-06-10 19:22:00,
2013-06-10 15:33:00,71.0,60.0,29.98,South,172,1.0,12.0,69,0.00,,,2.67,,2013-06-10 19:33:00,
2013-06-10 15:43:00,71.0,60.0,29.98,South,172,1.0,12.0,69,0.00,,,2.67,,2013-06-10 19:43:00,
2013-06-10 15:53:00,71.0,62.0,29.98,South,173,1.0,8.0,73,0.00,,,2.67,,2013-06-10 19:53:00,
2013-06-10 16:03:00,70.0,60.0,29.98,South,173,1.0,5.0,70,0.00,,,2.67,,2013-06-10 20:03:00,
2013-06-10 16:12:00,70.0,60.0,29.98,South,173,1.0,5.0,70,0.00,,,2.67,,2013-06-10 20:12:00,
2013-06-10 16:23:00,71.0,62.0,29.97,South,173,1.0,8.0,73,0.00,,,2.27,,2013-06-10 20:23:00,
2013-06-10 16:32:00,72.0,62.0,29.97,SSE,166,0.0,3.0,72,0.00,,,2.27,,2013-06-10 20:32:00,
2013-06-10 16:43:00,72.0,62.0,29.97,SSE,166,0.0,3.0,72,0.00,,,2.27,,2013-06-10 20:43:00,
2013-06-10 16:53:00,72.0,62.0,29.97,SSE,166,0.0,3.0,72,0.00,,,2.27,,2013-06-10 20:53:00,
2013-06-10 17:02:00,69.0,61.0,29.97,South,170,0.0,4.0,77,0.00,,,2.27,,2013-06-10 21:02:00,
2013-06-10 17:12:00,69.0,61.0,29.97,South,170,0.0,4.0,77,0.00,,,2.27,,2013-06-10 21:12:00,
2013-06-10 17:23:00,70.0,62.0,29.97,South,170,1.0,5.0,75,0.00,,,2.08,,2013-06-10 21:23:00,
2013-06-10 17:34:00,70.0,62.0,29.97,South,172,0.0,6.0,75,0.00,,,2.08,,2013-06-10 21:34:00,
2013-06-10 17:43:00,70.0,62.0,29.97,South,172,0.0,6.0,75,0.00,,,2.08,,2013-06-10 21:43:00,
2013-06-10 17:53:00,70.0,61.0,29.97,South,170,1.0,4.0,73,0.00,,,2.08,,2013-06-10 21:53:00,
2013-06-10 18:03:00,70.0,60.0,29.97,South,170,2.0,5.0,71,0.00,,,2.08,,2013-06-10 22:03:00,
2013-06-10 18:13:00,70.0,60.0,29.97,South,170,2.0,5.0,71,0.00,,,2.08,,2013-06-10 22:13:00,
2013-06-10 18:23:00,70.0,60.0,29.97,South,170,2.0,5.0,71,0.00,,,2.08,,2013-06-10 22:23:00,
2013-06-10 18:33:00,71.0,61.0,29.97,South,172,0.0,4.0,70,0.00,,,2.02,,2013-06-10 22:33:00,
2013-06-10 18:42:00,71.0,61.0,29.97,South,172,0.0,4.0,70,0.00,,,2.02,,2013-06-10 22:42:00,
2013-06-10 18:52:00,71.0,61.0,29.97,South,172,0.0,3.0,70,0.00,,,2.02,,2013-06-10 22:52:00,
2013-06-10 19:03:00,70.0,58.0,29.97,South,169,1.0,9.0,66,0.00,,,2.02,,2013-06-10 23:03:00,
2013-06-10 19:12:00,70.0,58.0,29.97,South,169,1.0,9.0,66,0.00,,,2.02,,2013-06-10 23:12:00,
2013-06-10 19:22:00,70.0,57.0,29.97,South,169,2.0,7.0,64,0.00,,,2.02,,2013-06-10 23:22:00,
2013-06-10 19:32:00,69.0,58.0,29.97,South,172,0.0,4.0,69,0.00,,,2.02,,2013-06-10 23:32:00,
2013-06-10 19:42:00,69.0,58.0,29.97,South,172,0.0,4.0,69,0.00,,,2.02,,2013-06-10 23:42:00,
2013-06-10 19:52:00,69.0,57.0,29.97,South,170,1.0,5.0,65,0.00,,,2.02,,2013-06-10 23:52:00,
2013-06-10 20:02:00,68.0,58.0,29.96,South,170,0.0,4.0,70,0.00,,,2.02,,2013-06-11 00:02:00,
2013-06-10 20:13:00,67.0,57.0,29.96,South,170,0.0,4.0,70,0.00,,,2.00,,2013-06-11 00:13:00,
2013-06-10 20:22:00,67.0,57.0,29.96,South,170,0.0,4.0,70,0.00,,,2.00,,2013-06-11 00:22:00,
2013-06-10 20:32:00,67.0,57.0,29.97,South,170,0.0,4.0,70,0.00,,,2.00,,2013-06-11 00:32:00,
2013-06-10 20:42:00,67.0,57.0,29.97,South,170,0.0,4.0,70,0.00,,,2.00,,2013-06-11 00:42:00,
2013-06-10 20:52:00,66.0,56.0,29.96,South,172,1.0,4.0,69,0.00,,,2.00,,2013-06-11 00:52:00,
2013-06-10 21:02:00,65.0,56.0,29.97,South,172,1.0,4.0,73,0.00,,,2.00,,2013-06-11 01:02:00,
2013-06-10 21:12:00,65.0,56.0,29.97,South,172,1.0,4.0,73,0.00,,,2.00,,2013-06-11 01:12:00,
2013-06-10 21:22:00,65.0,59.0,29.97,South,172,2.0,6.0,80,0.00,,,1.64,,2013-06-11 01:22:00,
2013-06-10 21:33:00,65.0,61.0,29.98,South,172,1.0,6.0,86,0.00,,,1.64,,2013-06-11 01:33:00,
2013-06-10 21:42:00,65.0,61.0,29.98,South,172,1.0,6.0,86,0.00,,,1.64,,2013-06-11 01:42:00,
2013-06-10 21:53:00,64.0,61.0,29.98,South,172,2.0,6.0,89,0.00,,,1.64,,2013-06-11 01:53:00,
2013-06-10 22:02:00,64.0,61.0,29.99,South,170,3.0,9.0,90,0.00,,,1.64,,2013-06-11 02:02:00,
2013-06-10 22:12:00,64.0,61.0,29.99,South,170,3.0,9.0,90,0.00,,,1.64,,2013-06-11 02:12:00,
2013-06-10 22:22:00,64.0,61.0,29.99,South,173,3.0,8.0,91,0.00,,,1.57,,2013-06-11 02:22:00,
2013-06-10 22:32:00,64.0,62.0,30.01,South,170,2.0,6.0,92,0.00,,,1.57,,2013-06-11 02:32:00,
2013-06-10 22:42:00,63.0,61.0,30.01,SSE,166,1.0,5.0,93,0.00,,,1.57,,2013-06-11 02:42:00,
2013-06-10 22:52:00,63.0,61.0,30.01,SSE,166,1.0,5.0,93,0.00,,,1.57,,2013-06-11 02:52:00,
2013-06-10 23:03:00,63.0,61.0,30.01,South,170,1.0,8.0,93,0.00,,,1.57,,2013-06-11 03:03:00,
2013-06-10 23:13:00,63.0,61.0,30.01,South,170,1.0,8.0,93,0.00,,,1.57,,2013-06-11 03:13:00,
2013-06-10 23:22:00,63.0,61.0,30.01,South,170,0.0,6.0,94,0.00,,,1.45,,2013-06-11 03:22:00,
2013-06-10 23:32:00,63.0,61.0,30.01,South,170,1.0,4.0,94,0.00,,,1.45,,2013-06-11 03:32:00,
2013-06-10 23:43:00,63.0,61.0,30.01,SSE,165,1.0,8.0,93,0.00,,,1.45,,2013-06-11 03:43:00,
2013-06-10 23:53:00,63.0,61.0,30.01,SSE,165,1.0,8.0,93,0.00,,,1.45,,2013-06-11 03:53:00,